To NAV CANADA Home Page Login to a new session Search on AWWS site Feedback and Comments Disclaimer Vers la page française équivalente Tips FAQ What's new on the site To the Forecasts and Observations / NOTAM section To "File a Flight Plan" website Publications and other links Update of the User's profile FIC Telephone Numbers My Weather Data Folder Route Weather Data Regional Weather Data Local Weather Data To the Forecasts and Observations / NOTAM section
Request Generated 09/26/2016 at 10:23:13 UTC . Weather information available at that time is displayed.

METAR/TAF

DAWSON CITY/YT    

LWIS CYDA 261000Z AUTO 00000KT M03/M04 A2984=
LWIS CYDA 260900Z AUTO 00000KT M02/M03 A2983=
LWIS CYDA 260800Z AUTO 07003KT M02/M02 A2983=

*** REMARK        : Forecast period has ended; this was the last TAF issued
*** REMARQUE : La période de prévision est échue; ceci était le dernier TAF qui a été émis
TAF CYDA 252338Z 2600/2603 07005KT P6SM SCT050 BKN110 TEMPO 2600/2603
BKN050
RMK NXT FCST WILL BE ISSUED AT 261445Z=
Your time UTC time
Weather data provided by Environment Canada and NAV CANADA